Regional Weather Roundup
Issued by NWS

Home | Current Version | Previous Version | Text Only | Print | Product List | Glossary Off
Versions: 1 2 3 4 5 6 7 8 9 10 11 12 13 14 15 16 17 18 19 20 21 22 23 24 25 26 27 28 29 30 31 32 33 34 35 36 37 38 39 40 41 42 43 44 45 46 47 48 49 50

000
ASUS43 KMPX 162301
RWRMN
WEATHER ROUNDUP FOR MINNESOTA
NATIONAL WEATHER SERVICE TWIN CITIES/CHANHASSEN MN
600 PM CDT WED AUG 16 2017


NOTE: "FAIR" INDICATES FEW OR NO CLOUDS BELOW 12,000 FEET WITH NO
SIGNIFICANT WEATHER AND/OR OBSTRUCTIONS TO VISIBILITY. N/A MEANS
CURRENT SKY AND/OR WEATHER CONDITIONS ARE NOT AVAILABLE.

MNZ060>063-068>070-170000-
   Twin Cities Metro

CITY           SKY/WX    TMP DP  RH WIND       PRES   REMARKS
TWIN CITIES    CLOUDY    77  68  73 E16       29.72F
ST PAUL        MOSUNNY   77  70  79 E14       29.73F
CRYSTAL        PTSUNNY   76  66  71 NE9       29.72F
BLAINE         CLOUDY    77  72  83 E13       29.75F
LAKEVILLE      CLOUDY    75  72  88 E12       29.71F
EDEN PRAIRIE   CLOUDY    77  69  76 E10       29.71F
SOUTH ST PAUL  CLOUDY    77  70  78 E9        29.72F
LAKE ELMO      FAIR      77  70  78 E9        29.76F
$$
MNZ001>005-007-008-013>017-022>024-027-028-170000-
   Northwest Minnesota

CITY           SKY/WX    TMP DP  RH WIND       PRES   REMARKS
BEMIDJI        RAIN      65  64  96 SE8       29.85S
HALLOCK        CLOUDY    68  64  88 E6        29.86S
ROSEAU         CLOUDY    64  59  82 NE7       29.87F HAZE
WARROAD        DRIZZLE   64  61  88 E14       29.88F
CROOKSTON      CLOUDY    64  64 100 N7        29.84S
FOSSTON        DRIZZLE   64  63  94 CALM      29.85S
DETROIT LAKES  LGT RAIN  64  64 100 E3        29.83F
MOORHEAD       DRIZZLE   66  64  94 N8        29.82F
PARK RAPIDS    LGT RAIN  68  65  90 SE7       29.84S
MAHNOMEN       DRIZZLE   66  64  94 SE3       29.83F
$$
MNZ006-009>011-018-025>026-170000-
   North Central Minnesota

CITY           SKY/WX    TMP DP  RH WIND       PRES   REMARKS
BAUDETTE       RAIN      63  62  97 E13       29.87F FOG
FLAG ISLAND    PTSUNNY   63  59  88 E6        29.88F
INTL FALLS     RAIN      61  60  97 SE5       29.91S VSB 1
WASKISH        DRIZZLE   64  63  94 E5        29.86F
BIG FORK       LGT RAIN  64  63  94 SE3       29.88S
LONGVILLE      LGT RAIN  64  63  94 CALM      29.85S
GRAND RAPIDS   LGT RAIN  63  61  93 SE7       29.88F
CRANE LAKE     LGT RAIN  61  61 100 CALM      29.93S
ORR            DRIZZLE   63  59  88 CALM      29.88F
COOK           DRIZZLE   63  61  94 MISG      29.90S
WALKER         LGT RAIN  64  63  96 CALM      29.84F
$$
MNZ012-019>021-037-170000-
   Northeast Minnesota

CITY           SKY/WX    TMP DP  RH WIND       PRES   REMARKS
DULUTH         CLOUDY    61  61 100 E15       29.87F FOG
ELY            DRIZZLE   63  57  82 E7        29.92F
HIBBING        HVY RAIN  62  61  96 SE8       29.89S FOG
EVELETH        RAIN      63  59  87 CALM      29.91S
DULUTH HARBOR  CLOUDY    63  61  94 NE25      29.87F
TWO HARBORS    RAIN      63  57  82 E8        29.89F
SILVER BAY     LGT RAIN  61  57  88 NE7G16    29.90F
GRAND MARAIS     N/A     64  59  83 E10       29.93F
$$
MNZ029>031-032-039>041-046>048-054>057-064-170000-
   West Central Minnesota

CITY           SKY/WX    TMP DP  RH WIND       PRES   REMARKS
FERGUS FALLS   LGT RAIN  66  66 100 NE3       29.80S
WHEATON        LGT RAIN  68  66  94 N3        29.79F
MORRIS         RAIN      68  66  94 NE6       29.76F
ALEXANDRIA     LGT RAIN  68  67  96 E8        29.80F
ELBOW LAKE     RAIN      66  66  99 E5        29.79F
WADENA         LGT RAIN  66  66 100 E5        29.81F
GLENWOOD       RAIN      66  66 100 NE9       29.79F
APPLETON       RAIN      70  66  88 NE10      29.73F
BENSON         LGT RAIN  68  66  94 E8        29.76F
ORTONVILLE     LGT RAIN  66  64  94 MISG      29.75F
MADISON        RAIN      70  70 100 NE12      29.73F
WILLMAR        RAIN      68  68 100 NE12      29.73F
$$
MNZ033>034-036-042>043-049>051-058-059-170000-
   Central Minnesota

CITY           SKY/WX    TMP DP  RH WIND       PRES   REMARKS
ST CLOUD       CLOUDY    70  68  93 NE6       29.77F
SAUK CENTRE    RAIN      66  65  97 NE9       29.79S
PAYNESVILLE    RAIN      67  67  99 NE8       29.76F
AITKIN         CLOUDY    63  63 100 NE5       29.84S FOG
PINE RIVER     LGT RAIN  63  63 100 E5        29.88S
STAPLES        LGT RAIN  64  64 100 NE5       29.81F
LONG PRAIRIE   RAIN      64  64 100 NE7       29.81F
LITTLE FALLS   LGT RAIN  64  63  94 NE6       29.79F
LITCHFIELD     LGT RAIN  70  70 100 NE9       29.73F
BUFFALO        CLOUDY    73  66  81 NE9       29.74F
MAPLE LAKE     LGT RAIN  72  69  88 NE7       29.75F
HUTCHINSON     TSTM      70  69  97 NE9       29.72F
$$
MNZ037-044-045-052-053-170000-
   East Central Minnesota

CITY           SKY/WX    TMP DP  RH WIND       PRES   REMARKS
PRINCETON      CLOUDY    73  68  83 NE6       29.77F
MORA           CLOUDY    70  64  83 NE3       29.81F
RUSH CITY      RAIN      73  67  81 E3        29.79F
MOOSE LAKE     CLOUDY    63  61  94 NE7       29.83F
HINCKLEY       MOCLDY    72  68  88 NE5       29.81F
CLOQUET        CLOUDY    61  59  94 E10       29.87S FOG
MCGREGOR       CLOUDY    63  61  94 E6        29.85F
$$
MNZ071>073-080-081-089-090-097-098-170000-
   Southwest Minnesota

CITY           SKY/WX    TMP DP  RH WIND       PRES   REMARKS
MONTEVIDEO     RAIN      66  66 100 NE12G18   29.72F
GRANITE FALLS  HVY RAIN  68  67  96 NW15      29.71F
CANBY          HVY RAIN  67  65  94 CALM      29.73F
MARSHALL       HVY RAIN  67  66  97 N12       29.68F FOG
REDWOOD FALLS  HVY RAIN  69  67  93 E8        29.68F VSB 3/4
OLIVIA         RAIN      70  68  94 NE9       29.69F
PIPESTONE      HVY RAIN  66  64  94 N8G16     29.70S
WINDOM         DRIZZLE   73  70  88 CALM      29.66F
WORTHINGTON    LGT RAIN  69  68  96 S7        29.67F
JACKSON        CLOUDY    72  72 100 CALM      29.67F
TRACY          HVY RAIN  68  68 100 NW9       29.66F
SLAYTON        RAIN      66  62  85 NE7       29.69F
$$
MNZ065>067-074>077-082>085-091>093-170000-
   South Central Minnesota

CITY           SKY/WX    TMP DP  RH WIND       PRES   REMARKS
MANKATO        LGT RAIN  73  72  94 SE14G20   29.67F FOG
NEW ULM        CLOUDY    70  66  88 CALM      29.68F VSB 1/2
ST JAMES       CLOUDY    72  70  94 SE14      29.67F
FAIRMONT       LGT RAIN  70  66  87 S9        29.68F
GLENCOE        TSTM      73  72  96 NE7       29.70F
FARIBAULT      LGT RAIN  75  70  83 E9G16     29.70F
OWATONNA       CLOUDY    75  70  83 E12G17    29.71F
WASECA         CLOUDY    72  70  94 E10       29.71F
ALBERT LEA     CLOUDY    73  73 100 SE9       29.72R
$$
MNZ078>079-086>088-094>096-170000-
   Southeast Minnesota

CITY           SKY/WX    TMP DP  RH WIND       PRES   REMARKS
ROCHESTER      HVY RAIN  72  70  93 SE13      29.75F VSB 3/4
RED WING       CLOUDY    79  66  65 E8        29.72F
STANTON        CLOUDY    78  69  75 E8        29.70F
DODGE CENTER   DRIZZLE   75  68  78 E12       29.72F
WINONA         CLOUDY    79  68  69 SE9       29.74F
AUSTIN         LGT RAIN  73  70  88 SE8       29.72S
PRESTON        RAIN      70  68  93 SE16G24   29.76F
$$
ABBREVIATIONS USED IN REMARKS
   TC - TEMPERATURES IN CELSIUS
  WCI - WIND CHILL INDEX
   HX - HEAT INDEX
  VSB - VISIBILITY
$$




USA.gov is the U.S. government's official web portal to all federal, state and local government web resources and services.